Location: Katzenstein
(51.7484°N, 10.2155°E)
Time: 04:41:06
(UTC+00:00)

CZ-4B R/B - Pass Details

Date: 17 February 2020
Orbit: 497 x 646 km, 97.8° (Epoch: 02 April)

Event Time Altitude Azimuth Distance (km) Brightness Sun altitude
Rises 04:10:36 0° 14° (NNE) 2,839 7.7 -22.3°
Reaches altitude 10° 04:12:44 10° 14° (NNE) 1,956 6.9 -22.0°
Maximum altitude 04:17:01 88° 104° (ESE) 627 4.0 -21.3°
Enters shadow 04:19:56 21° 194° (SSW) 1,415 5.7 -20.8°
